This is the latest recevied weather packets stored in our database for station/object W4MLN-3. If no packets are shown the sender has not sent any weather packets the latest 10 day(s).
| Time | Temp. | Humidity | Pressure | Rain* | Wind** | Luminosity | Snow |
|---|---|---|---|---|---|---|---|
| 1788552645 | 33.33° C | 48% | 1019.7 hPa | 0 mm | - | - | - |
| 1788552303 | 33.33° C | 47% | 1019.6 hPa | 0 mm | - | - | - |
| 1788552003 | 33.33° C | 46% | 1019.5 hPa | 0 mm | - | - | - |
| 1788551703 | 33.33° C | 45% | 1019.4 hPa | 0 mm | - | - | - |
| 1788551403 | 33.33° C | 47% | 1019.4 hPa | 0 mm | - | - | - |
| 1788551103 | 33.33° C | 49% | 1019.5 hPa | 0 mm | - | - | - |
| 1788550803 | 32.78° C | 49% | 1019.6 hPa | 0 mm | - | - | - |
| 1788550503 | 32.78° C | 48% | 1019.5 hPa | 0 mm | - | - | - |
| 1788550203 | 32.78° C | 47% | 1019.5 hPa | 0 mm | - | - | - |
| 1788549903 | 33.33° C | 51% | 1019.7 hPa | 0 mm | - | - | - |
| 1788549603 | 33.33° C | 49% | 1020 hPa | 0 mm | - | - | - |
| 1788549303 | 33.33° C | 48% | 1020.1 hPa | 0 mm | - | - | - |
| 1788549003 | 33.33° C | 48% | 1020.2 hPa | 0 mm | - | - | - |
| 1788548703 | 32.78° C | 47% | 1020.3 hPa | 0 mm | - | - | - |
| 1788548424 | 33.33° C | 48% | 1020.4 hPa | 0 mm | - | - | - |
| 1788548103 | 33.33° C | 48% | 1020.4 hPa | 0 mm | - | - | - |
| 1788547803 | 32.78° C | 49% | 1020.5 hPa | 0 mm | - | - | - |
| 1788547503 | 32.78° C | 51% | 1020.5 hPa | 0 mm | - | - | - |
| 1788547203 | 32.78° C | 53% | 1020.5 hPa | 0 mm | - | - | - |
| 1788546903 | 32.78° C | 53% | 1020.6 hPa | 0 mm | - | - | - |
| 1788546624 | 32.22° C | 52% | 1020.7 hPa | 0 mm | - | - | - |
| 1788546325 | 32.22° C | 52% | 1020.7 hPa | 0 mm | - | - | - |
| 1788546003 | 32.22° C | 55% | 1020.8 hPa | 0 mm | - | - | - |
| 1788545703 | 32.22° C | 52% | 1020.8 hPa | 0 mm | - | - | - |
| 1788545403 | 31.67° C | 55% | 1021 hPa | 0 mm | - | - | - |
* Rain latest hour (hover to see other rain measurements)
** Current wind speed in m/s (hover to see current wind gust speed)